Home > Weather > Witzenhausen > Past weeks

Flag for Germany Weather for the Past 2 Weeks in Witzenhausen, Hesse, Germany

Now
51 °F

Cool.


Feels Like: 51 °F
Forecast: 48 / 71 °F
Wind: 2 mph from Northwest

Location: Fritzlar

Current Time: May 7, 2016 at 3:23:38 AM

Latest Report: May 7, 2016 at 1:00 AM


Visibility: 6 mi

Pressure: 29.97 "Hg

Humidity: 77%

Dew Point: 44 °F

Location of WitzenhausenLocation

Historic Weather in Witzenhausen — Graph

°F

Witzenhausen Temperature Yesterday

Maximum temperature yesterday: 74 °F (at 4:00 PM)
Minimum temperature yesterday: 40 °F (at 6:00 AM)
Average temperature yesterday: 58 °F

High & Low Weather Summary for the Past Weeks

 TemperatureHumidityPressure
High74 °F (May 6, 4:00 PM)94% (May 6, 4:00 AM)30.43 "Hg (May 6, 4:00 AM)
Low28 °F (Apr 24, 6:00 AM)30% (May 2, 6:00 PM)29.50 "Hg (Apr 26, 3:00 PM)
Average46 °F67%30.04 "Hg
* Reported Apr 22 1:00 AM — May 7 1:00 AM, Witzenhausen, Weather by CustomWeather, © 2016

Note: Actual official high and low records may vary slightly from our data, if they occured in-between our weather recording intervals... More about our weather records

Advertising

Witzenhausen Weather History for the Previous 24 Hours

Scroll right to see more
 ConditionsComfort  
Time TempWeatherWind HumidityBarometerVisibility
1:00 AM
Sat, May 7
51 °FCool.2 mph77%29.97 "Hg6 mi
12:00 AM53 °FCool.3 mph73%29.96 "Hg7 mi
10:00 PM
Fri, May 6
55 °FCool.N/A71%29.95 "Hg7 mi
9:00 PM64 °FMild.1 mph49%29.93 "Hg9 mi
7:00 PM71 °FMild.5 mph40%29.92 "Hg22 mi
6:00 PM74 °FMild.6 mph32%29.93 "Hg34 mi
4:00 PM74 °FMild.6 mph31%29.95 "Hg31 mi
3:00 PM73 °FMild.5 mph36%29.98 "Hg19 mi
1:00 PM70 °FScattered clouds.6 mph40%30.01 "Hg31 mi
12:00 PM68 °FScattered clouds.6 mph46%30.03 "Hg28 mi
10:00 AM62 °FPartly sunny.3 mph61%30.06 "Hg25 mi
9:00 AM57 °FPartly sunny.2 mph68%30.09 "Hg22 mi
7:00 AM42 °FPartly sunny.1 mph94%30.12 "Hg19 mi
6:00 AM40 °FPartly sunny.2 mph94%30.13 "Hg19 mi
4:00 AM42 °FClear.2 mph94%30.15 "Hg25 mi
3:00 AM42 °FClear.2 mph93%30.16 "Hg25 mi
Weather by CustomWeather, © 2016

See weather overviewHow to use our weather pages